FENGYUN 1C DEB, 41825

Orbit data source: Space-Track

FENGYUN 1C DEB, 41825 is space debris in SSO originally from a launch on Mon, 10 May 1999 UTC launched from the Taiyaun Space Center, China (TSC). Fengyun 1C debris stems from the Chinese weather satellite Fengyun-1C, which was intentionally destroyed by a Chinese anti-satellite missile in 2007. This event dramatically increased the amount of space debris, with thousands of trackable fragments posing hazards to satellites and human spaceflight. The Fengyun 1C debris cloud has become a focal point in discussions about space sustainability and the need for international regulations to prevent the creation of new debris.

Loading next visibility...
Identifier
41825, 1999-025EYC
Orbit
SSO
Country
Flag of CNCN / PRC
Related business
Manufacturer
Unknown
Mission
Spacecraft
Bus & Motor
Unknown
Mass
Unknown
Launch date (UTC)
1999-05-10 (27 years ago)
Launch vehicle
Unknown
Launch site
Taiyaun Space Center, China (TSC)
Object type
Payload
Rocket body
Debris
Shape & HBR
Unknown shape, 0.1 m
Radar Cross Section
Small (<0.1 m²)

Expand to show TLE details & history
Last TLE update: 1 day ago

TLE from 1 day ago
0 FENGYUN 1C DEB
1 41825U 99025EYC 26208.16767217  .00002605  00000-0  10830-2 0  9997
2 41825  98.7290 281.4246 0051812 282.5329  77.0058 14.26542943505751
Epoch: 2026-07-27T04:01Z
TLE epoch observation values (Epoch: 2026-07-27T04:01:26.875Z)
Latitude
-0.00006°
Longitude
-83.7925°
Altitude
798.048 km
Speed
7.459 km/s
True Right ascension
18h 45m 41s
True Declination
0° 00' 00"
Sunlit
Object was in full shadow at epoch
Visualization orbit readout
Latitude
Unknown
Longitude
Unknown
Altitude
Unknown
Speed
Unknown
Apparent Right ascension
Unknown
Apparent Declination
Unknown
Sunlit
N/A
Visualization observer readout
Local Sidereal Time
04:46:26
Azimuth
Unknown
Elevation
Unknown
Doppler factor
Unknown
Orbital elements
Apogee altitude
837.654 km
Perigee altitude
763.267 km
Semi-major axis
7,178.597 km
Eccentricity
0.00518
Inclination
98.729°
RAAN
281.4246°
Arg. of periapsis
282.5329°
True anomaly
77.58515°
Mean anomaly
77.0058°
Eccentric anomaly
77.29539°
Mean motion
3.56848 °/min
Orbital period
100.88 mins
BSTAR
0.001083
Loading maneuver chart data...
Computing Atmospheric mass density...

Documentation

Showing up to 5 results
|